Location: Bastrop State Park
(30.1090°N, 97.2819°W)
Time: 04:23:03
(UTC-06:00)

ISS - Visible Passes

Search period start: 05 March 2015 00:00
Search period end: 15 March 2015 01:00
Orbit: 394 x 406 km, 51.6° (Epoch: 04 March)

Date Brightness Start Highest point End Pass type
(mag) Time Alt. Az. Time Alt. Az. Time Alt. Az.
05 Mar 0.1 06:20:28 10° SE 06:21:10 11° SE 06:22:01 10° ESE visible
07 Mar -1.3 06:06:55 10° S 06:09:44 29° SE 06:12:36 10° ENE visible
08 Mar -0.3 06:14:28 10° SSE 06:15:50 12° SE 06:17:21 10° E visible
09 Mar -3.4 06:54:48 12° SW 06:57:47 89° SE 07:01:00 10° NE visible
10 Mar -1.9 06:03:30 33° SE 06:03:33 33° SE 06:06:30 10° ENE visible
11 Mar -2.4 06:44:24 26° WNW 06:45:21 32° NW 06:48:17 10° NNE visible
12 Mar -1.3 05:52:28 25° NE 05:52:28 25° NE 05:53:57 10° NE visible
13 Mar -1.2 06:32:44 15° NNW 06:32:44 15° NNW 06:34:25 10° N visible
14 Mar -0.2 05:40:14 10° NNE 05:40:14 10° NNE 05:40:19 10° NNE visible
